Weather History for Kankakee, IL

Change the Weather History Date:

Saturday, August 31, 2013

  Actual Average Record
Temperature  
Mean Temperature 75 °F -  
Max Temperature 83 °F 83 °F 96 °F (2010)
Min Temperature 67 °F 58 °F 47 °F (1986)
Cooling Degree Days 10    
Growing Degree Days 25 (Base 50)    
Moisture  
Dew Point 69 °F    
Average Humidity 88    
Maximum Humidity 98    
Minimum Humidity 70    
Precipitation  
Precipitation 0.06 in - - ()
Sea Level Pressure  
Sea Level Pressure 29.82 in    
Wind  
Wind Speed 5 mph (NE)    
Max Wind Speed 15 mph    
Max Gust Speed 16 mph    
Visibility 9 miles    
Events Rain , Thunderstorm    
Averages and records for this station are not official NWS values.
T = Trace of Precipitation, MM = Missing Value Source: NWS Daily Summary

Daily Weather History Graph

Daily Weather History Graph

Search for Another Location

Airport:

Trip Planner

Search our weather history database for the weather conditions in past years. The results will help you decide how hot, cold, wet, or windy it might be!

Date:

Astronomy

Aug. 31, 2013 Rise Set
Actual Time 6:17 AM CDT 7:25 PM CDT
Civil Twilight 5:48 AM CDT 7:53 PM CDT
Nautical Twilight 5:15 AM CDT 8:27 PM CDT
Astronomical Twilight 4:39 AM CDT 9:02 PM CDT
Moon 1:44 AM CDT (8/31) 4:24 PM CDT (8/31)
Length of Visible Light 14h 04m
Length of Day
13h 07m
Waning Crescent, 21% of the Moon is Illuminated
Aug 31
Waning Crescent
Sep 5
New
Sep 12
First Quarter
Sep 19
Full
Sep 26
Last Quarter

Hourly Weather History & Observations

Time (CDT) Temp. Heat Index Dew Point Humidity Pressure Visibility Wind Dir Wind Speed Gust Speed Precip Events Conditions
12:15 AM 67.8 °F - 65.3 °F 92% 29.82 in 10.0 mi North 8.1 mph - N/A   Clear
12:35 AM 67.8 °F - 65.5 °F 92% 29.81 in 10.0 mi NE 6.9 mph - N/A   Clear
12:55 AM 68.2 °F - 65.1 °F 90% 29.81 in 10.0 mi NNE 5.8 mph - N/A   Clear
1:15 AM 67.5 °F - 65.3 °F 93% 29.82 in 10.0 mi Calm Calm - N/A   Clear
1:35 AM 67.5 °F - 65.3 °F 93% 29.83 in 10.0 mi Calm Calm - N/A   Clear
1:55 AM 67.1 °F - 65.3 °F 94% 29.83 in 10.0 mi East 5.8 mph - N/A   Clear
2:15 AM 67.3 °F - 65.8 °F 95% 29.84 in 10.0 mi Calm Calm - N/A   Clear
2:35 AM 67.6 °F - 66.2 °F 95% 29.85 in 10.0 mi SE 3.5 mph - N/A   Clear
2:55 AM 67.3 °F - 65.8 °F 95% 29.85 in 10.0 mi SE 3.5 mph - N/A   Mostly Cloudy
3:15 AM 68.0 °F - 66.2 °F 94% 29.85 in 10.0 mi Calm Calm - N/A   Overcast
3:35 AM 68.0 °F - 65.8 °F 93% 29.85 in 10.0 mi Calm Calm - N/A   Overcast
3:55 AM 67.8 °F - 66.0 °F 94% 29.85 in 10.0 mi Calm Calm - N/A   Overcast
4:15 AM 67.8 °F - 66.2 °F 95% 29.87 in 10.0 mi Calm Calm - N/A   Overcast
4:35 AM 67.6 °F - 66.2 °F 95% 29.87 in 10.0 mi Calm Calm - N/A   Overcast
4:55 AM 67.3 °F - 66.4 °F 97% 29.87 in 10.0 mi Calm Calm - N/A   Overcast
5:15 AM 67.1 °F - 66.2 °F 97% 29.86 in 10.0 mi Calm Calm - N/A   Mostly Cloudy
5:35 AM 67.3 °F - 66.2 °F 96% 29.86 in 10.0 mi Calm Calm - N/A   Overcast
5:55 AM 67.3 °F - 66.4 °F 97% 29.86 in 10.0 mi Calm Calm - N/A   Mostly Cloudy
6:15 AM 68.0 °F - 66.7 °F 96% 29.86 in 7.0 mi East 3.5 mph - N/A   Mostly Cloudy
6:35 AM 68.0 °F - 66.9 °F 96% 29.86 in 5.0 mi Calm Calm - N/A   Mostly Cloudy
6:55 AM 67.5 °F - 66.9 °F 98% 29.86 in 4.0 mi NE 3.5 mph - N/A   Mostly Cloudy
7:15 AM 68.4 °F - 67.5 °F 97% 29.85 in 4.0 mi ENE 5.8 mph - N/A   Clear
7:35 AM 68.7 °F - 67.6 °F 96% 29.85 in 4.0 mi NE 4.6 mph - N/A   Scattered Clouds
7:55 AM 69.1 °F - 68.0 °F 96% 29.86 in 5.0 mi Calm Calm - N/A   Mostly Cloudy
8:15 AM 69.3 °F - 67.8 °F 95% 29.86 in 5.0 mi NE 3.5 mph - N/A Thunderstorm Overcast
8:35 AM 70.7 °F - 68.4 °F 92% 29.85 in 7.0 mi ENE 4.6 mph - N/A   Scattered Clouds
8:55 AM 72.5 °F - 69.4 °F 90% 29.85 in 10.0 mi East 6.9 mph - N/A   Clear
9:15 AM 73.4 °F - 69.3 °F 87% 29.85 in 10.0 mi East 4.6 mph - N/A   Scattered Clouds
9:35 AM 74.5 °F - 69.8 °F 85% 29.84 in 10.0 mi East 5.8 mph - N/A   Clear
9:55 AM 75.2 °F - 70.0 °F 84% 29.84 in 10.0 mi East 5.8 mph - N/A   Clear
10:15 AM 76.1 °F - 70.2 °F 82% 29.84 in 10.0 mi ESE 6.9 mph - N/A   Clear
10:35 AM 76.1 °F - 70.2 °F 82% 29.85 in 10.0 mi East 4.6 mph - N/A   Mostly Cloudy
10:55 AM 77.0 °F - 70.9 °F 81% 29.86 in 10.0 mi NE 5.8 mph - N/A   Mostly Cloudy
11:15 AM 78.1 °F - 71.2 °F 79% 29.85 in 10.0 mi ENE 6.9 mph - N/A   Scattered Clouds
11:35 AM 79.9 °F - 71.4 °F 75% 29.84 in 10.0 mi NE 8.1 mph - N/A   Clear
11:55 AM 78.6 °F - 71.6 °F 79% 29.82 in 10.0 mi East 10.4 mph - N/A   Clear
12:15 PM 77.9 °F - 70.9 °F 79% 29.83 in 10.0 mi ENE 6.9 mph - N/A   Clear
12:35 PM 77.2 °F - 71.4 °F 82% 29.87 in 10.0 mi NNW 3.5 mph - N/A Thunderstorm Mostly Cloudy
12:55 PM 75.0 °F - 71.8 °F 90% 29.84 in 3.0 mi NE 6.9 mph - 0.06 in Rain , Thunderstorm Thunderstorms and Rain
1:15 PM 74.3 °F - 72.0 °F 92% 29.82 in 10.0 mi ENE 15.0 mph - N/A Thunderstorm Scattered Clouds
1:35 PM 76.1 °F - 72.7 °F 89% 29.81 in 10.0 mi ENE 13.8 mph - N/A   Scattered Clouds
1:55 PM 77.7 °F - 73.2 °F 86% 29.80 in 10.0 mi East 12.7 mph - N/A   Scattered Clouds
2:15 PM 79.3 °F - 73.4 °F 82% 29.80 in 10.0 mi East 10.4 mph - N/A Thunderstorm Clear
2:35 PM 80.8 °F 85.6 °F 73.4 °F 78% 29.79 in 10.0 mi East 9.2 mph - N/A   Clear
2:55 PM 82.0 °F 87.4 °F 73.0 °F 74% 29.80 in 10.0 mi ESE 5.8 mph - N/A   Clear
3:15 PM 83.3 °F 89.0 °F 72.5 °F 70% 29.79 in 10.0 mi East 5.8 mph - N/A   Clear
3:35 PM 83.1 °F 88.6 °F 72.5 °F 70% 29.78 in 10.0 mi ENE 5.8 mph - N/A Thunderstorm Clear
3:55 PM 83.5 °F 89.7 °F 73.2 °F 71% 29.78 in 10.0 mi ENE 6.9 mph - N/A Thunderstorm Thunderstorm
4:15 PM 83.5 °F 89.4 °F 72.7 °F 70% 29.76 in 10.0 mi NE 6.9 mph - N/A Thunderstorm Scattered Clouds
4:35 PM 82.2 °F 87.3 °F 72.3 °F 72% 29.77 in 10.0 mi NNE 3.5 mph - N/A   Mostly Cloudy
4:55 PM 81.7 °F 86.9 °F 73.2 °F 75% 29.78 in 10.0 mi NNE 5.8 mph - N/A   Overcast
5:15 PM 81.7 °F 86.9 °F 73.2 °F 75% 29.78 in 10.0 mi NNE 4.6 mph - N/A   Mostly Cloudy
5:35 PM 80.2 °F 84.2 °F 72.0 °F 76% 29.78 in 10.0 mi NNE 6.9 mph - N/A   Scattered Clouds
5:55 PM 79.0 °F - 72.1 °F 79% 29.77 in 10.0 mi NNE 6.9 mph - N/A   Clear
6:15 PM 77.0 °F - 71.6 °F 83% 29.77 in 10.0 mi NNE 8.1 mph 16.1 mph N/A   Clear
6:35 PM 76.3 °F - 71.2 °F 84% 29.78 in 10.0 mi NNE 9.2 mph - N/A   Clear
6:55 PM 75.0 °F - 70.2 °F 85% 29.79 in 10.0 mi NNE 8.1 mph - N/A   Scattered Clouds
7:15 PM 73.6 °F - 69.6 °F 87% 29.79 in 10.0 mi NNE 9.2 mph - N/A   Scattered Clouds
7:35 PM 72.9 °F - 68.9 °F 87% 29.81 in 10.0 mi ENE 9.2 mph - N/A   Scattered Clouds
7:55 PM 72.9 °F - 69.3 °F 88% 29.81 in 10.0 mi NE 6.9 mph - N/A   Mostly Cloudy
8:15 PM 72.0 °F - 69.1 °F 91% 29.81 in 10.0 mi NNE 4.6 mph - N/A   Mostly Cloudy
8:35 PM 71.6 °F - 68.9 °F 91% 29.80 in 10.0 mi NNE 5.8 mph - N/A   Scattered Clouds
8:55 PM 70.9 °F - 68.5 °F 92% 29.80 in 10.0 mi NNE 4.6 mph - N/A   Clear
9:15 PM 70.7 °F - 68.2 °F 92% 29.80 in 10.0 mi NNE 5.8 mph - N/A   Scattered Clouds
9:35 PM 70.0 °F - 68.2 °F 94% 29.80 in 10.0 mi NNE 4.6 mph - N/A   Scattered Clouds
9:55 PM 69.6 °F - 68.0 °F 95% 29.82 in 10.0 mi North 4.6 mph - N/A   Clear
10:15 PM 70.0 °F - 68.0 °F 93% 29.83 in 10.0 mi North 4.6 mph - N/A   Clear
10:35 PM 69.4 °F - 67.5 °F 93% 29.82 in 10.0 mi NE 8.1 mph - N/A   Scattered Clouds
10:55 PM 69.3 °F - 67.6 °F 95% 29.83 in 10.0 mi North 3.5 mph - N/A   Scattered Clouds
11:15 PM 69.3 °F - 67.5 °F 94% 29.83 in 10.0 mi NNE 4.6 mph - N/A   Mostly Cloudy
11:35 PM 69.1 °F - 67.6 °F 95% 29.83 in 10.0 mi Calm Calm - N/A   Overcast
11:55 PM 68.9 °F - 67.6 °F 96% 29.82 in 7.0 mi NNE 3.5 mph - N/A   Mostly Cloudy